Wind_Speed
8 9 9 8 9 9 9 9 9 9 10 10 10 11 11 11 12 12 13 14 14 15 15 15 15 14 14 14 14 14 15 15 16 17 18 18 19 18 19 19 19 19 20
9 10 10 9 9 10 10 10 10 11 11 12 12 12 12 13 13 14 15 16 16 16 15 16 15 14 15 15 15 15 16 16 16 16 17 17 18 18 19 19 20 21 21
10 10 10 10 11 11 11 11 11 12 12 12 13 13 14 14 15 16 17 17 17 16 15 15 14 14 14 15 15 16 16 16 17 17 17 18 19 19 20 20 20 22 23
11 11 11 12 12 12 12 12 12 12 12 13 13 14 15 16 16 16 17 17 17 16 15 14 13 13 14 14 15 16 17 17 18 18 19 19 20 20 21 21 22 23 24
12 13 13 13 12 13 13 13 13 13 14 14 14 15 16 16 17 17 17 17 17 17 16 15 14 14 14 15 16 17 17 18 18 19 19 19 19 20 21 22 22 22 24
14 14 14 14 14 14 14 14 14 14 15 15 15 16 17 18 19 18 17 17 17 17 16 15 15 15 16 17 18 18 19 18 19 19 19 19 20 21 22 22 23 24 24
16 15 15 16 16 16 15 15 16 16 16 17 17 18 18 19 19 18 18 18 17 17 16 17 17 17 17 18 19 19 19 19 20 21 20 21 21 21 22 23 24 24 25
17 17 17 17 17 17 17 17 17 18 18 18 18 18 19 19 19 19 18 18 18 18 18 18 19 19 20 20 20 19 19 20 21 22 22 22 22 23 24 25 25 25 27
20 19 19 18 18 18 18 19 19 19 19 19 19 19 20 20 20 19 20 20 19 19 19 19 20 20 21 21 21 20 21 22 23 22 22 23 23 24 25 25 26 26 27
21 21 21 20 19 19 20 20 20 20 21 21 21 21 20 20 21 21 21 21 21 21 21 20 20 21 21 21 21 21 22 22 23 23 23 24 25 25 26 26 26 26 27
23 22 21 21 21 21 21 22 21 21 21 22 22 22 22 21 22 22 22 22 22 22 21 21 21 21 21 22 22 22 23 23 23 24 25 26 26 26 26 26 26 27 27
24 23 22 22 22 22 22 22 22 22 23 23 23 23 22 22 21 22 22 23 23 22 22 22 22 21 22 22 23 24 24 24 25 25 26 26 25 26 27 28 28 28 28
25 24 23 23 24 24 24 23 24 24 24 24 24 24 23 23 23 23 23 23 23 23 23 23 23 23 23 23 24 25 25 26 26 27 27 27 27 28 29 29 29 29 30
25 25 25 26 26 25 25 25 25 25 25 25 25 24 24 24 24 24 25 24 24 24 24 24 24 24 24 24 25 26 27 27 27 27 28 28 29 29 29 29 29 30 30
27 27 27 27 26 26 26 27 26 25 25 25 25 25 25 25 25 26 25 25 25 25 25 25 25 24 25 25 26 27 27 27 28 28 29 29 29 29 30 31 31 31 31
28 28 28 28 27 27 26 27 27 26 26 26 26 26 26 26 27 27 26 26 26 25 25 25 25 25 26 26 26 27 27 28 28 29 29 29 29 30 31 31 32 32 32
28 28 29 29 28 27 27 27 27 26 26 27 27 27 27 28 28 28 27 27 27 26 26 26 26 26 27 27 27 27 27 28 29 29 30 30 31 31 31 31 32 32 32
30 29 29 29 29 29 28 28 27 27 26 27 28 28 29 29 29 29 28 28 27 28 28 27 27 27 27 27 27 27 28 29 29 30 30 31 32 32 33 33 33 33 32
31 31 30 30 29 29 29 28 28 28 28 28 28 29 29 29 29 29 29 28 28 28 28 27 27 27 28 28 28 28 29 29 29 30 31 32 32 32 33 33 33 32 32
32 32 32 31 31 31 30 29 29 29 29 29 29 29 29 29 30 30 30 29 28 27 27 27 28 28 29 29 29 29 29 30 30 31 31 31 32 32 32 32 32 32 31
32 32 32 31 31 31 30 30 30 30 29 29 30 30 30 30 30 30 29 29 28 28 28 28 28 28 29 30 30 30 30 30 31 31 32 32 31 31 31 31 31 31 31
32 32 31 31 31 31 31 31 31 30 29 29 29 29 30 29 29 28 28 28 28 28 28 29 29 29 30 30 30 30 31 31 32 33 33 33 33 33 32 31 30 30 30
31 31 31 31 30 30 30 30 30 29 30 30 29 29 28 28 28 28 28 28 29 29 29 30 30 30 30 30 31 31 31 32 32 33 34 34 34 33 32 31 30 30 29
30 29 30 30 30 30 29 29 29 28 28 28 28 28 28 28 28 27 27 28 29 29 29 30 30 30 30 30 31 31 32 32 33 33 33 33 32 32 31 31 30 29 29
30 30 30 29 29 29 28 28 28 28 28 27 27 27 28 28 27 26 27 27 28 29 29 29 29 30 29 30 31 31 31 31 32 32 32 32 31 30 30 29 29 29 29
28 28 28 28 27 27 27 27 27 28 28 28 27 27 27 26 26 26 27 27 28 28 28 28 29 29 28 29 29 30 30 30 30 30 29 30 30 29 29 28 28 28 29
Wind_Direction
337 340 341 344 346 345 344 344 341 339 336 333 331 328 328 325 322 320 319 318 316 313 311 310 308 304 301 300 296 295 297 297 294 291 289 286 284 284 283 283 282 281 282
325 331 334 337 339 339 338 338 335 331 328 326 323 322 321 320 316 313 312 313 314 314 311 310 306 302 299 297 294 295 296 297 296 295 292 290 288 288 288 285 283 283 283
319 322 326 330 329 333 335 333 330 328 324 321 319 319 319 318 316 313 313 314 312 315 315 313 310 305 303 299 296 296 297 298 298 295 292 291 289 290 291 290 287 286 286
311 314 316 321 323 326 327 326 325 326 324 320 317 316 317 318 318 316 316 316 311 312 315 315 312 308 306 304 300 299 298 298 299 297 292 290 290 290 292 292 292 291 289
303 306 308 311 315 317 318 319 319 320 320 320 319 317 318 317 317 315 317 315 313 313 313 313 310 306 305 304 301 300 298 296 298 298 295 294 294 293 293 293 293 294 292
293 298 302 304 307 310 312 313 313 315 316 316 317 317 318 318 318 314 314 316 313 311 311 310 310 307 305 306 303 301 300 300 299 298 297 296 296 296 295 293 293 295 292
288 292 294 297 301 304 305 307 309 310 310 312 313 314 315 315 317 315 312 311 311 314 313 314 311 307 305 304 305 303 302 302 302 300 297 297 296 296 296 297 296 295 294
284 285 289 293 296 298 299 302 304 306 308 309 310 311 312 312 313 315 315 311 312 314 316 316 315 310 307 304 304 303 303 303 302 300 300 299 297 296 296 296 296 295 294
280 284 287 290 292 295 297 299 301 302 304 306 307 308 309 308 308 309 310 310 310 310 311 313 313 312 309 306 305 304 303 302 302 304 302 301 300 299 297 297 297 297 296
280 283 286 287 288 291 295 297 299 300 301 302 306 307 306 305 306 307 307 307 307 307 309 312 312 311 310 307 306 305 304 304 303 302 302 301 300 299 297 297 297 297 297
277 280 283 285 288 291 294 296 297 300 302 307 309 309 307 305 307 308 308 309 310 308 306 307 308 308 309 308 307 306 305 304 305 303 303 302 300 299 299 299 298 298 297
273 277 280 283 286 288 292 295 298 301 303 306 308 310 309 307 307 307 308 308 309 308 306 306 308 308 308 308 308 307 306 305 304 304 304 303 301 299 299 299 299 298 297
271 275 279 282 284 286 288 291 294 298 301 303 304 306 305 305 305 306 306 307 307 305 303 303 305 306 306 306 307 307 307 307 304 304 304 301 300 299 299 299 299 299 299
272 273 276 279 282 284 287 288 291 295 297 299 301 302 302 302 303 305 305 305 305 304 303 302 303 304 305 305 305 305 305 305 304 304 305 302 300 300 300 300 299 299 299
272 274 277 280 282 283 285 287 288 290 293 296 298 299 300 301 302 303 306 306 305 305 304 304 304 304 304 304 304 305 305 305 305 305 305 305 303 302 302 301 300 300 300
271 273 276 279 281 282 284 286 288 289 290 292 295 296 297 299 300 301 302 304 305 305 305 303 303 304 304 304 303 304 304 305 305 305 304 305 305 303 302 301 301 301 300
271 274 275 277 279 281 283 284 286 288 290 292 294 295 295 297 298 300 300 302 304 305 306 306 305 304 305 305 304 303 304 305 306 306 305 305 305 304 304 303 302 301 301
271 273 274 276 278 280 281 282 285 286 287 290 292 293 294 295 298 299 299 300 301 302 303 304 305 306 306 306 306 305 305 305 306 306 306 305 305 304 304 303 302 301 301
271 272 273 274 277 279 280 282 284 285 286 288 290 291 293 295 296 297 297 298 299 299 300 301 302 303 304 305 306 306 307 306 306 306 306 306 305 305 305 304 303 302 302
268 269 270 272 275 277 278 280 282 284 285 287 289 291 293 294 295 296 295 296 296 296 297 298 300 301 302 303 305 305 306 306 306 306 306 306 306 306 306 305 304 302 302
266 267 270 272 274 276 278 279 280 281 284 286 288 289 291 292 294 295 295 294 295 295 296 297 298 300 301 303 304 304 305 305 305 306 307 307 306 306 306 306 305 305 305
265 266 268 270 272 274 276 278 278 281 282 285 288 288 289 291 292 293 293 293 294 297 298 299 299 299 300 300 301 304 305 305 305 306 306 306 306 306 306 306 305 304 305
264 264 267 269 271 272 275 277 279 282 282 284 286 287 288 290 291 291 291 293 295 296 297 298 300 301 302 302 303 304 306 307 307 308 307 306 305 305 305 305 305 304 303
263 264 266 268 270 271 273 276 277 279 282 284 286 286 288 289 289 290 291 293 295 297 297 297 299 301 302 303 304 305 307 308 308 308 307 307 306 305 305 305 305 305 304
264 265 266 267 267 269 271 273 276 277 280 283 286 286 287 288 288 290 293 295 296 297 297 297 298 300 301 303 305 307 308 309 310 310 309 309 309 308 307 307 306 305 305
265 266 266 266 267 268 270 272 275 276 279 281 284 286 286 286 288 291 293 295 297 298 299 299 300 301 302 304 306 308 309 309 311 311 311 311 311 311 310 309 307 306 306
Height
5905 5904 5903 5901 5900 5898 5897 5895 5894 5892 5890 5889 5887 5885 5883 5881 5879 5877 5875 5873 5870 5868 5866 5864 5862 5860 5859 5857 5855 5853 5851 5850 5848 5846 5844 5842 5840 5839 5837 5836 5835 5833 5832
5904 5903 5901 5900 5898 5897 5895 5893 5891 5890 5888 5886 5884 5882 5881 5878 5876 5874 5872 5869 5867 5864 5862 5860 5858 5856 5854 5853 5851 5849 5847 5846 5844 5842 5840 5838 5836 5834 5833 5831 5829 5828 5826
5902 5901 5899 5898 5896 5894 5893 5891 5889 5887 5885 5884 5882 5880 5878 5875 5873 5870 5868 5865 5863 5860 5858 5855 5853 5851 5850 5848 5846 5845 5843 5841 5839 5837 5835 5833 5831 5830 5828 5826 5824 5822 5821
5900 5899 5897 5896 5894 5893 5891 5889 5887 5885 5883 5881 5879 5877 5875 5872 5870 5867 5864 5861 5859 5856 5854 5852 5849 5847 5846 5844 5842 5840 5838 5836 5834 5832 5830 5828 5826 5824 5822 5820 5818 5816 5814
5897 5896 5895 5893 5892 5890 5889 5887 5885 5882 5880 5878 5876 5874 5871 5869 5866 5863 5860 5858 5855 5853 5850 5848 5845 5843 5841 5839 5837 5835 5834 5832 5829 5827 5825 5823 5821 5819 5816 5814 5812 5810 5807
5894 5893 5892 5890 5889 5887 5885 5883 5881 5879 5877 5875 5873 5870 5868 5865 5862 5859 5856 5854 5851 5849 5846 5844 5842 5839 5837 5835 5832 5831 5829 5827 5824 5822 5820 5818 5815 5813 5810 5808 5806 5803 5800
5890 5889 5888 5887 5885 5884 5882 5880 5878 5876 5874 5871 5869 5867 5864 5861 5858 5855 5852 5850 5847 5845 5843 5840 5838 5835 5833 5830 5828 5826 5823 5821 5819 5817 5814 5812 5810 5807 5805 5802 5799 5797 5794
5886 5885 5884 5882 5881 5879 5877 5876 5874 5872 5869 5867 5865 5862 5860 5857 5854 5852 5848 5846 5844 5841 5839 5836 5833 5830 5828 5826 5823 5821 5818 5816 5813 5811 5809 5806 5804 5801 5798 5796 5793 5790 5787
5880 5880 5879 5877 5876 5874 5873 5871 5869 5867 5864 5862 5860 5857 5856 5853 5850 5848 5845 5842 5839 5837 5834 5832 5829 5826 5823 5821 5818 5816 5813 5810 5808 5805 5802 5800 5797 5794 5791 5789 5785 5783 5780
5875 5874 5873 5871 5870 5869 5867 5865 5863 5861 5858 5856 5855 5852 5850 5848 5845 5843 5840 5837 5835 5832 5829 5827 5824 5821 5818 5815 5813 5810 5808 5805 5802 5799 5796 5793 5790 5787 5784 5781 5778 5775 5772
5868 5867 5866 5866 5864 5863 5861 5860 5858 5856 5853 5851 5849 5847 5844 5842 5840 5837 5834 5832 5829 5827 5824 5821 5819 5816 5813 5810 5807 5805 5802 5799 5795 5792 5789 5786 5782 5779 5776 5773 5770 5768 5765
5861 5860 5859 5859 5858 5857 5855 5854 5852 5850 5848 5846 5843 5841 5839 5837 5834 5832 5829 5826 5824 5821 5818 5815 5813 5810 5807 5804 5801 5798 5795 5792 5789 5786 5782 5778 5775 5772 5769 5766 5763 5759 5756
5854 5854 5853 5853 5852 5850 5849 5848 5846 5844 5842 5840 5838 5836 5833 5831 5829 5826 5823 5821 5817 5814 5812 5809 5806 5804 5801 5798 5795 5792 5789 5785 5782 5778 5775 5771 5768 5764 5761 5758 5754 5751 5748
5847 5847 5846 5846 5845 5843 5842 5841 5839 5838 5836 5834 5832 5830 5827 5825 5822 5820 5817 5814 5811 5808 5805 5802 5800 5797 5794 5791 5788 5785 5782 5778 5774 5771 5767 5763 5760 5756 5753 5750 5746 5743 5739
5840 5840 5839 5838 5838 5837 5835 5834 5832 5831 5829 5827 5825 5823 5821 5818 5816 5813 5810 5807 5804 5801 5798 5796 5793 5790 5787 5784 5781 5778 5774 5771 5767 5763 5760 5756 5752 5749 5745 5742 5738 5734 5730
5832 5832 5832 5831 5830 5829 5828 5827 5825 5823 5822 5820 5818 5816 5814 5812 5809 5806 5803 5800 5797 5795 5792 5789 5786 5783 5780 5776 5773 5770 5766 5763 5759 5756 5752 5748 5745 5741 5737 5733 5729 5725 5721
5824 5824 5824 5823 5822 5821 5820 5819 5818 5816 5814 5813 5811 5808 5806 5804 5802 5799 5796 5793 5790 5788 5785 5782 5779 5776 5773 5769 5766 5762 5759 5755 5751 5748 5744 5740 5736 5732 5728 5724 5720 5716 5712
5815 5816 5815 5815 5814 5813 5812 5811 5810 5808 5807 5805 5803 5801 5799 5796 5794 5791 5789 5786 5783 5780 5778 5774 5771 5768 5765 5762 5758 5755 5751 5747 5743 5739 5735 5731 5727 5723 5719 5715 5711 5708 5704
5806 5807 5807 5806 5806 5805 5804 5803 5802 5800 5799 5798 5796 5794 5791 5789 5786 5784 5781 5778 5775 5773 5770 5767 5764 5760 5757 5754 5750 5747 5743 5739 5735 5731 5727 5722 5718 5714 5710 5706 5702 5698 5694
5796 5797 5797 5797 5796 5796 5795 5794 5793 5792 5791 5789 5787 5785 5783 5781 5778 5776 5773 5770 5767 5764 5761 5759 5756 5752 5749 5746 5742 5739 5735 5731 5727 5723 5718 5714 5709 5705 5701 5697 5693 5689 5685
5787 5787 5788 5787 5787 5787 5786 5785 5784 5783 5782 5780 5779 5777 5775 5772 5770 5767 5765 5762 5759 5756 5753 5750 5747 5744 5741 5738 5734 5730 5726 5722 5718 5714 5709 5705 5701 5696 5692 5688 5684 5680 5676
5777 5778 5778 5778 5778 5778 5777 5776 5775 5774 5773 5772 5770 5768 5766 5764 5761 5759 5756 5754 5751 5748 5745 5742 5739 5736 5733 5729 5725 5721 5717 5713 5709 5705 5700 5696 5692 5687 5683 5679 5675 5671 5667
5767 5768 5768 5768 5768 5768 5767 5767 5766 5765 5764 5763 5761 5759 5757 5755 5753 5750 5748 5745 5742 5739 5736 5733 5730 5727 5724 5720 5716 5713 5709 5705 5700 5696 5691 5687 5682 5678 5674 5670 5666 5663 5659
5757 5757 5758 5758 5758 5758 5758 5757 5757 5756 5755 5754 5752 5750 5748 5746 5744 5741 5739 5737 5734 5731 5728 5725 5722 5718 5715 5711 5708 5704 5699 5695 5691 5686 5682 5677 5673 5669 5665 5661 5657 5654 5650
5748 5748 5749 5749 5749 5749 5749 5748 5748 5747 5746 5745 5743 5742 5740 5738 5735 5733 5731 5728 5725 5723 5720 5716 5713 5710 5706 5703 5699 5695 5691 5686 5682 5678 5673 5669 5665 5661 5657 5653 5649 5645 5642
5738 5739 5739 5739 5739 5740 5740 5740 5739 5739 5737 5736 5735 5733 5731 5729 5727 5725 5723 5720 5717 5714 5711 5708 5705 5702 5698 5695 5691 5687 5683 5679 5675 5670 5665 5661 5657 5653 5649 5645 5641 5637 5634